TimeCST,TemperatureF,Dew PointF,Humidity,Sea Level PressureIn,VisibilityMPH,Wind Direction,Wind SpeedMPH,Gust SpeedMPH,PrecipitationIn,Events,Conditions,WindDirDegrees,DateUTC
12:15 AM,46.4,24.8,43,30.13,10.0,NNW,9.2,-,N/A,,Clear,340,2011-11-21 06:15:00
12:35 AM,46.4,23.0,40,30.12,10.0,NNW,8.1,-,N/A,,Clear,340,2011-11-21 06:35:00
12:55 AM,48.2,24.8,40,30.12,10.0,NNW,9.2,-,N/A,,Clear,340,2011-11-21 06:55:00
1:15 AM,50.0,24.8,37,30.11,10.0,NNW,9.2,-,N/A,,Clear,340,2011-11-21 07:15:00
1:35 AM,50.0,24.8,37,30.11,10.0,North,9.2,-,N/A,,Clear,350,2011-11-21 07:35:00
1:55 AM,50.0,26.6,40,30.10,10.0,North,5.8,-,N/A,,Clear,10,2011-11-21 07:55:00
2:55 AM,48.2,26.6,43,30.09,10.0,NNE,4.6,-,N/A,,Clear,20,2011-11-21 08:55:00
3:35 AM,46.4,26.6,46,30.08,10.0,NNW,3.5,-,N/A,,Clear,330,2011-11-21 09:35:00
3:55 AM,48.2,28.4,46,30.09,10.0,NNW,3.5,-,N/A,,Clear,330,2011-11-21 09:55:00
4:15 AM,46.4,28.4,50,30.08,10.0,Calm,Calm,-,N/A,,Clear,0,2011-11-21 10:15:00
4:35 AM,46.4,28.4,50,30.08,10.0,Calm,Calm,-,N/A,,Clear,0,2011-11-21 10:35:00
4:55 AM,46.4,28.4,50,30.08,10.0,Calm,Calm,-,N/A,,Clear,0,2011-11-21 10:55:00
5:15 AM,46.4,30.2,53,30.08,10.0,NE,3.5,-,N/A,,Clear,50,2011-11-21 11:15:00
5:35 AM,48.2,37.4,66,30.08,10.0,NE,3.5,-,N/A,,Clear,40,2011-11-21 11:35:00
5:55 AM,48.2,37.4,66,30.08,10.0,NW,3.5,-,N/A,,Clear,320,2011-11-21 11:55:00
6:15 AM,46.4,35.6,66,30.08,10.0,Calm,Calm,-,N/A,,Clear,0,2011-11-21 12:15:00
6:35 AM,44.6,32.0,61,30.07,10.0,ENE,3.5,-,N/A,,Clear,70,2011-11-21 12:35:00
6:55 AM,46.4,33.8,62,30.07,10.0,NNW,3.5,-,N/A,,Clear,330,2011-11-21 12:55:00
7:15 AM,46.4,35.6,66,30.08,10.0,Calm,Calm,-,N/A,,Clear,0,2011-11-21 13:15:00
7:35 AM,48.2,37.4,66,30.08,10.0,Calm,Calm,-,N/A,,Clear,0,2011-11-21 13:35:00
7:55 AM,51.8,42.8,71,30.09,10.0,Calm,Calm,-,N/A,,Clear,0,2011-11-21 13:55:00
8:35 AM,48.2,39.2,71,30.09,10.0,Calm,Calm,-,N/A,,Clear,0,2011-11-21 14:35:00
8:55 AM,50.0,39.2,66,30.10,10.0,NW,3.5,-,N/A,,Partly Cloudy,320,2011-11-21 14:55:00
9:15 AM,50.0,39.2,66,30.10,9.0,Calm,Calm,-,N/A,,Partly Cloudy,0,2011-11-21 15:15:00
9:35 AM,51.8,39.2,62,30.09,7.0,Calm,Calm,-,N/A,,Clear,0,2011-11-21 15:35:00
9:55 AM,53.6,42.8,67,30.10,6.0,Calm,Calm,-,N/A,,Clear,0,2011-11-21 15:55:00
10:15 AM,55.4,48.2,77,30.11,10.0,Calm,Calm,-,N/A,,Clear,0,2011-11-21 16:15:00
10:35 AM,59.0,48.2,67,30.11,10.0,SSW,5.8,-,N/A,,Clear,200,2011-11-21 16:35:00
10:55 AM,62.6,46.4,55,30.10,10.0,South,11.5,-,N/A,,Clear,170,2011-11-21 16:55:00
11:15 AM,66.2,42.8,43,30.09,10.0,South,13.8,17.3,N/A,,Clear,170,2011-11-21 17:15:00
11:35 AM,69.8,39.2,33,30.08,10.0,South,12.7,-,N/A,,Clear,190,2011-11-21 17:35:00
12:15 PM,73.4,26.6,18,30.06,10.0,SW,26.5,31.1,N/A,,Clear,230,2011-11-21 18:15:00
12:35 PM,73.4,26.6,18,30.05,10.0,SW,26.5,-,N/A,,Clear,220,2011-11-21 18:35:00
12:55 PM,73.4,24.8,16,30.03,10.0,SW,21.9,31.1,N/A,,Clear,230,2011-11-21 18:55:00
1:15 PM,73.4,24.8,16,30.02,10.0,SW,25.3,31.1,N/A,,Clear,220,2011-11-21 19:15:00
1:35 PM,73.4,24.8,16,30.01,10.0,SW,23.0,28.8,N/A,,Clear,220,2011-11-21 19:35:00
1:55 PM,73.4,26.6,18,30.00,10.0,SSW,19.6,27.6,N/A,,Clear,210,2011-11-21 19:55:00
2:15 PM,73.4,26.6,18,30.00,10.0,SW,19.6,34.5,N/A,,Clear,230,2011-11-21 20:15:00
2:35 PM,73.4,26.6,18,29.99,10.0,WSW,23.0,29.9,N/A,,Clear,250,2011-11-21 20:35:00
2:55 PM,73.4,24.8,16,29.99,10.0,WSW,26.5,32.2,N/A,,Clear,250,2011-11-21 20:55:00
3:15 PM,73.4,21.2,14,29.98,10.0,WSW,32.2,-,N/A,,Clear,250,2011-11-21 21:15:00
3:35 PM,73.4,21.2,14,29.99,10.0,WSW,27.6,33.4,N/A,,Clear,250,2011-11-21 21:35:00
3:55 PM,73.4,21.2,14,29.98,10.0,SW,24.2,32.2,N/A,,Clear,220,2011-11-21 21:55:00
4:15 PM,71.6,21.2,15,29.99,10.0,WSW,23.0,31.1,N/A,,Clear,240,2011-11-21 22:15:00
4:35 PM,71.6,19.4,14,30.00,10.0,West,19.6,-,N/A,,Clear,260,2011-11-21 22:35:00
4:55 PM,71.6,19.4,14,30.00,10.0,West,20.7,24.2,N/A,,Clear,270,2011-11-21 22:55:00
5:15 PM,69.8,21.2,16,30.01,10.0,West,18.4,23.0,N/A,,Clear,260,2011-11-21 23:15:00
5:35 PM,68.0,21.2,17,30.02,10.0,West,17.3,24.2,N/A,,Clear,280,2011-11-21 23:35:00
5:55 PM,66.2,23.0,19,30.03,10.0,WNW,15.0,-,N/A,,Clear,300,2011-11-21 23:55:00
6:15 PM,62.6,24.8,24,30.05,10.0,WNW,12.7,18.4,N/A,,Clear,300,2011-11-22 00:15:00
6:35 PM,62.6,28.4,27,30.06,10.0,WNW,13.8,-,N/A,,Clear,300,2011-11-22 00:35:00
6:55 PM,60.8,28.4,29,30.07,10.0,WNW,13.8,-,N/A,,Clear,300,2011-11-22 00:55:00
7:15 PM,60.8,28.4,29,30.08,10.0,WNW,13.8,-,N/A,,Clear,300,2011-11-22 01:15:00
7:35 PM,59.0,26.6,29,30.09,10.0,WNW,15.0,-,N/A,,Clear,290,2011-11-22 01:35:00
7:55 PM,57.2,26.6,31,30.10,10.0,WNW,15.0,-,N/A,,Clear,290,2011-11-22 01:55:00
8:15 PM,57.2,28.4,33,30.11,10.0,WNW,15.0,-,N/A,,Clear,300,2011-11-22 02:15:00
8:35 PM,55.4,33.8,44,30.13,10.0,WNW,15.0,-,N/A,,Clear,300,2011-11-22 02:35:00
8:55 PM,55.4,33.8,44,30.14,10.0,WNW,12.7,-,N/A,,Clear,300,2011-11-22 02:55:00
9:35 PM,53.6,30.2,41,30.15,10.0,WNW,18.4,24.2,N/A,,Clear,300,2011-11-22 03:35:00
9:55 PM,53.6,30.2,41,30.16,10.0,WNW,17.3,-,N/A,,Clear,300,2011-11-22 03:55:00
10:15 PM,51.8,30.2,44,30.17,10.0,WNW,12.7,19.6,N/A,,Clear,300,2011-11-22 04:15:00
10:35 PM,51.8,30.2,44,30.18,10.0,NW,11.5,-,N/A,,Clear,310,2011-11-22 04:35:00
10:55 PM,51.8,30.2,44,30.19,10.0,WNW,8.1,-,N/A,,Clear,290,2011-11-22 04:55:00
11:15 PM,51.8,30.2,44,30.19,10.0,WNW,8.1,-,N/A,,Clear,290,2011-11-22 05:15:00
11:35 PM,51.8,30.2,44,30.19,10.0,WNW,9.2,-,N/A,,Clear,290,2011-11-22 05:35:00
11:55 PM,50.0,30.2,47,30.19,10.0,WNW,11.5,19.6,N/A,,Clear,290,2011-11-22 05:55:00